Location: Oberwangen
(47.4286°N, 8.9679°E)
Time: 10:56:57
(UTC+00:00)

Cosmos 1816 Rocket - Pass Details

Date: 25 October 2021
Orbit: 952 x 998 km, 82.9° (Epoch: 08 December)

Event Time Altitude Azimuth Distance (km) Brightness Sun altitude
Rises 20:30:31 0° 341° (NNW) 3,652 8.1 -42.0°
Reaches altitude 10° 20:33:26 10° 329° (NNW) 2,707 7.4 -42.4°
Enters shadow 20:37:12 24° 293° (WNW) 1,888 6.4 -42.9°
